Time,TemperatureF,DewpointF,PressureIn,WindDirection,WindDirectionDegrees,WindSpeedMPH,WindSpeedGustMPH,Humidity,HourlyPrecipIn,Conditions,Clouds,dailyrainin,SoftwareType,DateUTC
2015-03-26 00:02:00,39.9,30.8,30.14,SW,218,0.0,0.0,70,0.00,,---,0.00,VWS V13.01,2015-03-26 04:02:00,
2015-03-26 00:07:00,39.9,30.8,30.14,SW,218,0.0,0.0,70,0.00,,---,0.00,VWS V13.01,2015-03-26 04:07:00,
2015-03-26 00:12:00,39.6,30.5,30.14,SW,218,0.0,0.0,70,0.00,,---,0.00,VWS V13.01,2015-03-26 04:12:00,
2015-03-26 00:17:00,39.2,30.1,30.14,SW,218,0.0,0.0,70,0.00,,---,0.00,VWS V13.01,2015-03-26 04:17:00,
2015-03-26 00:22:00,39.0,30.4,30.14,SW,218,0.0,0.0,71,0.00,,---,0.00,VWS V13.01,2015-03-26 04:22:00,
2015-03-26 00:27:00,38.8,30.2,30.14,SW,218,0.0,0.0,71,0.00,,---,0.00,VWS V13.01,2015-03-26 04:27:00,
2015-03-26 00:32:00,38.5,29.8,30.14,SW,218,0.0,0.0,71,0.00,,---,0.00,VWS V13.01,2015-03-26 04:32:00,
2015-03-26 00:37:00,38.1,29.5,30.14,SW,218,0.0,0.0,71,0.00,,---,0.00,VWS V13.01,2015-03-26 04:37:00,
2015-03-26 00:42:00,37.9,29.3,30.14,SW,218,0.0,0.0,71,0.00,,---,0.00,VWS V13.01,2015-03-26 04:42:00,
2015-03-26 00:47:00,37.8,29.1,30.14,SW,218,0.0,0.0,71,0.00,,---,0.00,VWS V13.01,2015-03-26 04:47:00,
2015-03-26 00:52:00,37.9,29.3,30.14,SW,218,0.0,0.0,71,0.00,,---,0.00,VWS V13.01,2015-03-26 04:52:00,
2015-03-26 00:57:00,37.9,29.7,30.14,SW,218,0.0,0.0,72,0.00,,---,0.00,VWS V13.01,2015-03-26 04:57:00,
2015-03-26 01:02:00,37.9,29.7,30.14,SW,218,0.0,0.0,72,0.00,,---,0.00,VWS V13.01,2015-03-26 05:02:00,
2015-03-26 01:07:00,37.8,29.6,30.14,SW,218,0.0,0.0,72,0.00,,---,0.00,VWS V13.01,2015-03-26 05:07:00,
2015-03-26 01:12:00,37.6,29.4,30.14,SW,218,0.0,0.0,72,0.00,,---,0.00,VWS V13.01,2015-03-26 05:12:00,
2015-03-26 01:17:00,37.6,29.4,30.14,SW,218,0.0,0.0,72,0.00,,---,0.00,VWS V13.01,2015-03-26 05:17:00,
2015-03-26 01:22:00,37.4,29.6,30.14,SW,218,0.0,0.0,73,0.00,,---,0.00,VWS V13.01,2015-03-26 05:22:00,
2015-03-26 01:27:00,37.4,29.6,30.14,SW,218,0.0,0.0,73,0.00,,---,0.00,VWS V13.01,2015-03-26 05:27:00,
2015-03-26 01:32:00,37.2,29.4,30.14,SW,218,0.0,0.0,73,0.00,,---,0.00,VWS V13.01,2015-03-26 05:32:00,
2015-03-26 01:37:00,37.2,29.4,30.14,SW,218,0.0,0.0,73,0.00,,---,0.00,VWS V13.01,2015-03-26 05:37:00,
2015-03-26 01:42:00,37.4,29.6,30.14,SW,218,0.0,0.0,73,0.00,,---,0.00,VWS V13.01,2015-03-26 05:42:00,
2015-03-26 01:47:00,37.6,30.2,30.14,SW,218,0.0,2.2,74,0.00,,---,0.00,VWS V13.01,2015-03-26 05:47:00,
2015-03-26 01:52:00,38.1,30.7,30.14,SW,216,0.0,2.2,74,0.00,,---,0.00,VWS V13.01,2015-03-26 05:52:00,
2015-03-26 01:57:00,38.3,31.3,30.14,NNE,21,0.0,0.0,76,0.00,,---,0.00,VWS V13.01,2015-03-26 05:57:00,
2015-03-26 02:02:00,38.5,31.5,30.11,NE,41,2.2,2.7,76,0.00,,---,0.00,VWS V13.01,2015-03-26 06:02:00,
2015-03-26 02:07:00,38.8,32.2,30.11,ENE,62,4.0,4.0,77,0.00,,---,0.00,VWS V13.01,2015-03-26 06:07:00,
2015-03-26 02:12:00,39.4,32.7,30.11,ENE,62,3.1,3.1,77,0.00,,---,0.00,VWS V13.01,2015-03-26 06:12:00,
2015-03-26 02:17:00,39.9,33.2,30.11,ENE,63,0.0,3.1,77,0.00,,---,0.00,VWS V13.01,2015-03-26 06:17:00,
2015-03-26 02:22:00,40.1,33.8,30.11,ENE,60,2.2,2.2,78,0.00,,---,0.00,VWS V13.01,2015-03-26 06:22:00,
2015-03-26 02:27:00,40.1,33.8,30.11,ENE,59,2.2,3.1,78,0.00,,---,0.00,VWS V13.01,2015-03-26 06:27:00,
2015-03-26 02:32:00,40.3,34.0,30.08,ENE,59,3.1,3.1,78,0.00,,---,0.00,VWS V13.01,2015-03-26 06:32:00,
2015-03-26 02:37:00,40.3,34.0,30.08,NE,47,2.7,3.1,78,0.00,,---,0.00,VWS V13.01,2015-03-26 06:37:00,
2015-03-26 02:42:00,40.1,33.8,30.08,NE,55,3.6,4.9,78,0.00,,---,0.00,VWS V13.01,2015-03-26 06:42:00,
2015-03-26 02:47:00,40.3,34.4,30.08,NE,49,2.7,2.7,79,0.00,,---,0.00,VWS V13.01,2015-03-26 06:47:00,
2015-03-26 02:52:00,40.5,34.5,30.08,NE,47,2.7,2.7,79,0.00,,---,0.00,VWS V13.01,2015-03-26 06:52:00,
2015-03-26 02:57:00,40.5,34.5,30.08,NE,35,2.2,2.2,79,0.00,,---,0.00,VWS V13.01,2015-03-26 06:57:00,
2015-03-26 03:02:00,40.5,34.5,30.08,NNE,30,2.2,2.2,79,0.00,,---,0.00,VWS V13.01,2015-03-26 07:02:00,
2015-03-26 03:07:00,40.5,34.5,30.08,NNE,23,3.1,3.1,79,0.00,,---,0.00,VWS V13.01,2015-03-26 07:07:00,
2015-03-26 03:12:00,40.6,35.1,30.08,NNE,33,2.7,2.7,80,0.00,,---,0.00,VWS V13.01,2015-03-26 07:12:00,
2015-03-26 03:17:00,40.8,35.3,30.08,NNE,30,2.7,2.7,80,0.00,,---,0.00,VWS V13.01,2015-03-26 07:17:00,
2015-03-26 03:22:00,40.8,35.3,30.08,NNE,23,2.2,3.1,80,0.00,,---,0.00,VWS V13.01,2015-03-26 07:22:00,
2015-03-26 03:27:00,41.0,35.4,30.08,NNE,27,2.2,2.2,80,0.00,,---,0.00,VWS V13.01,2015-03-26 07:27:00,
2015-03-26 03:32:00,41.0,35.4,30.08,NNE,21,3.1,3.1,80,0.00,,---,0.00,VWS V13.01,2015-03-26 07:32:00,
2015-03-26 03:37:00,41.2,35.6,30.08,NNE,19,3.6,3.6,80,0.00,,---,0.00,VWS V13.01,2015-03-26 07:37:00,
2015-03-26 03:42:00,41.2,35.6,30.08,North,0,2.7,2.7,80,0.00,,---,0.00,VWS V13.01,2015-03-26 07:42:00,
2015-03-26 03:47:00,41.2,36.0,30.05,North,353,4.0,4.0,82,0.00,,---,0.00,VWS V13.01,2015-03-26 07:47:00,
2015-03-26 03:52:00,41.4,36.2,30.05,NNW,345,0.0,2.2,82,0.00,,---,0.00,VWS V13.01,2015-03-26 07:52:00,
2015-03-26 03:57:00,41.5,36.3,30.05,NNW,342,2.7,2.7,82,0.00,,---,0.00,VWS V13.01,2015-03-26 07:57:00,
2015-03-26 04:02:00,41.5,36.7,30.08,NW,317,2.7,2.7,83,0.00,,---,0.00,VWS V13.01,2015-03-26 08:02:00,
2015-03-26 04:07:00,41.7,36.9,30.08,NW,317,2.7,2.7,83,0.00,,---,0.00,VWS V13.01,2015-03-26 08:07:00,
2015-03-26 04:12:00,41.7,36.9,30.08,NW,326,5.4,5.4,83,0.00,,---,0.00,VWS V13.01,2015-03-26 08:12:00,
2015-03-26 04:17:00,41.7,37.2,30.08,NW,312,6.3,8.7,84,0.00,,---,0.00,VWS V13.01,2015-03-26 08:17:00,
2015-03-26 04:22:00,41.5,37.1,30.08,NNW,343,0.0,4.0,84,0.00,,---,0.00,VWS V13.01,2015-03-26 08:22:00,
2015-03-26 04:27:00,41.5,37.1,30.08,NNW,343,2.7,5.8,84,0.00,,---,0.00,VWS V13.01,2015-03-26 08:27:00,
2015-03-26 04:32:00,41.5,37.4,30.08,North,0,3.1,4.5,85,0.00,,---,0.00,VWS V13.01,2015-03-26 08:32:00,
2015-03-26 04:37:00,41.5,37.4,30.08,North,353,0.0,2.7,85,0.00,,---,0.00,VWS V13.01,2015-03-26 08:37:00,
2015-03-26 04:42:00,41.5,37.4,30.08,NNW,339,0.0,0.0,85,0.00,,---,0.00,VWS V13.01,2015-03-26 08:42:00,
2015-03-26 04:47:00,41.5,37.4,30.08,North,11,0.0,0.0,85,0.00,,---,0.00,VWS V13.01,2015-03-26 08:47:00,
2015-03-26 04:52:00,41.5,37.8,30.08,NE,39,3.1,3.1,86,0.00,,---,0.00,VWS V13.01,2015-03-26 08:52:00,
2015-03-26 04:57:00,41.5,37.8,30.08,NNE,23,4.0,5.4,86,0.00,,---,0.00,VWS V13.01,2015-03-26 08:57:00,
2015-03-26 05:01:00,41.5,37.8,30.05,North,350,4.0,4.0,86,0.00,,---,0.00,VWS V13.01,2015-03-26 09:01:00,
2015-03-26 05:06:00,41.5,37.8,30.05,NE,42,3.6,3.6,86,0.00,,---,0.00,VWS V13.01,2015-03-26 09:06:00,
2015-03-26 05:11:00,41.5,37.8,30.05,NNE,18,0.0,2.2,86,0.00,,---,0.00,VWS V13.01,2015-03-26 09:11:00,
2015-03-26 05:16:00,41.5,38.1,30.02,ENE,57,2.2,3.6,88,0.00,,---,0.00,VWS V13.01,2015-03-26 09:16:00,
2015-03-26 05:21:00,41.5,38.1,30.02,ENE,57,0.0,0.0,88,0.00,,---,0.00,VWS V13.01,2015-03-26 09:21:00,
2015-03-26 05:26:00,41.5,38.1,30.02,NNE,14,3.1,3.1,88,0.00,,---,0.00,VWS V13.01,2015-03-26 09:26:00,
2015-03-26 05:31:00,41.5,38.1,30.05,NW,324,0.0,2.7,88,0.00,,---,0.00,VWS V13.01,2015-03-26 09:31:00,
2015-03-26 05:36:00,41.4,38.0,30.05,NW,321,2.7,3.6,88,0.00,,---,0.00,VWS V13.01,2015-03-26 09:36:00,
2015-03-26 05:41:00,41.4,38.0,30.05,NNW,328,0.0,0.0,88,0.00,,---,0.00,VWS V13.01,2015-03-26 09:41:00,
2015-03-26 05:46:00,41.2,38.1,30.05,NNW,328,0.0,0.0,89,0.00,,---,0.00,VWS V13.01,2015-03-26 09:46:00,
2015-03-26 05:51:00,41.2,38.1,30.05,NNW,328,0.0,0.0,89,0.00,,---,0.00,VWS V13.01,2015-03-26 09:51:00,
2015-03-26 05:56:00,41.2,38.1,30.05,NNW,343,2.2,3.6,89,0.00,,---,0.00,VWS V13.01,2015-03-26 09:56:00,
2015-03-26 06:01:00,41.2,38.1,30.05,NNW,344,0.0,0.0,89,0.00,,---,0.00,VWS V13.01,2015-03-26 10:01:00,
2015-03-26 06:06:00,41.2,38.1,30.05,NNW,344,0.0,0.0,89,0.00,,---,0.00,VWS V13.01,2015-03-26 10:06:00,
2015-03-26 06:11:00,41.2,38.1,30.05,NNE,18,2.7,3.6,89,0.00,,---,0.00,VWS V13.01,2015-03-26 10:11:00,
2015-03-26 06:16:00,41.2,38.1,30.02,ENE,68,0.0,0.0,89,0.00,,---,0.00,VWS V13.01,2015-03-26 10:16:00,
2015-03-26 06:21:00,41.2,38.1,30.02,ENE,68,3.1,3.1,89,0.00,,---,0.00,VWS V13.01,2015-03-26 10:21:00,
2015-03-26 06:26:00,41.0,38.3,30.02,NE,46,0.0,0.0,90,0.00,,---,0.00,VWS V13.01,2015-03-26 10:26:00,
2015-03-26 06:31:00,41.0,38.3,29.99,NE,54,2.2,3.6,90,0.00,,---,0.00,VWS V13.01,2015-03-26 10:31:00,
2015-03-26 06:36:00,41.0,38.3,29.99,NE,55,0.0,0.0,90,0.00,,---,0.00,VWS V13.01,2015-03-26 10:36:00,
2015-03-26 06:41:00,41.0,38.3,29.99,NE,46,0.0,2.2,90,0.00,,---,0.00,VWS V13.01,2015-03-26 10:41:00,
2015-03-26 06:46:00,41.0,38.3,30.02,North,6,0.0,3.6,90,0.00,,---,0.00,VWS V13.01,2015-03-26 10:46:00,
2015-03-26 06:51:00,41.0,38.3,30.02,North,357,4.0,4.0,90,0.00,,---,0.00,VWS V13.01,2015-03-26 10:51:00,
2015-03-26 06:56:00,41.0,38.3,30.02,North,357,0.0,0.0,90,0.00,,---,0.00,VWS V13.01,2015-03-26 10:56:00,
2015-03-26 07:01:00,40.8,38.5,30.02,North,357,0.0,0.0,91,0.00,,---,0.00,VWS V13.01,2015-03-26 11:01:00,
2015-03-26 07:06:00,40.8,38.5,30.02,NNE,31,0.0,0.0,91,0.00,,---,0.00,VWS V13.01,2015-03-26 11:06:00,
2015-03-26 07:11:00,40.8,38.5,30.02,NNW,341,3.6,3.6,91,0.00,,---,0.00,VWS V13.01,2015-03-26 11:11:00,
2015-03-26 18:52:00,40.8,38.5,30.02,NW,318,7.6,7.6,91,0.00,,---,0.00,VWS V13.01,2015-03-26 22:52:00,
2015-03-26 18:57:00,39.0,39.0,30.02,NW,305,4.9,4.9,100,0.00,,---,0.00,VWS V13.01,2015-03-26 22:57:00,
2015-03-26 19:02:00,39.0,39.0,30.02,NW,317,3.6,3.6,100,0.00,,---,0.00,VWS V13.01,2015-03-26 23:02:00,
2015-03-26 19:07:00,38.8,38.8,30.02,NNW,338,2.7,5.4,100,0.00,,---,0.00,VWS V13.01,2015-03-26 23:07:00,
2015-03-26 19:12:00,38.8,38.8,30.02,NW,308,4.0,4.0,100,0.00,,---,0.00,VWS V13.01,2015-03-26 23:12:00,
2015-03-26 19:17:00,38.8,38.8,30.05,NNW,328,3.6,4.0,100,0.00,,---,0.00,VWS V13.01,2015-03-26 23:17:00,
2015-03-26 19:22:00,38.8,38.8,30.05,NW,313,0.0,3.1,100,0.00,,---,0.00,VWS V13.01,2015-03-26 23:22:00,
2015-03-26 19:27:00,38.8,38.8,30.05,NW,311,0.0,2.7,100,0.00,,---,0.00,VWS V13.01,2015-03-26 23:27:00,
2015-03-26 19:32:00,38.8,38.8,30.05,NW,317,0.0,2.2,100,0.00,,---,0.00,VWS V13.01,2015-03-26 23:32:00,
2015-03-26 19:37:00,38.7,38.7,30.05,WNW,302,3.1,3.6,100,0.00,,---,0.00,VWS V13.01,2015-03-26 23:37:00,
2015-03-26 19:42:00,38.7,38.7,30.05,WNW,301,2.2,3.1,100,0.00,,---,0.00,VWS V13.01,2015-03-26 23:42:00,
2015-03-26 19:47:00,38.7,38.7,30.05,WNW,290,4.0,4.0,100,0.00,,---,0.00,VWS V13.01,2015-03-26 23:47:00,
2015-03-26 19:52:00,38.7,38.7,30.05,NW,306,2.7,4.0,100,0.00,,---,0.00,VWS V13.01,2015-03-26 23:52:00,
2015-03-26 19:56:00,38.7,38.7,30.05,NW,320,4.0,4.0,100,0.00,,---,0.00,VWS V13.01,2015-03-26 23:56:00,
2015-03-26 20:01:00,38.5,38.5,30.05,NNW,344,0.0,2.7,100,0.00,,---,0.00,VWS V13.01,2015-03-27 00:01:00,
2015-03-26 20:06:00,38.5,38.5,30.05,NW,319,4.0,4.0,100,0.00,,---,0.00,VWS V13.01,2015-03-27 00:06:00,
2015-03-26 20:11:00,38.3,38.3,30.05,NW,304,0.0,3.6,100,0.00,,---,0.00,VWS V13.01,2015-03-27 00:11:00,
2015-03-26 20:16:00,38.1,38.1,30.05,NW,310,3.1,3.6,100,0.00,,---,0.00,VWS V13.01,2015-03-27 00:16:00,
2015-03-26 20:21:00,38.1,38.1,30.05,NW,305,2.2,2.2,100,0.00,,---,0.00,VWS V13.01,2015-03-27 00:21:00,
2015-03-26 20:26:00,37.9,37.9,30.05,WNW,301,3.1,3.1,100,0.00,,---,0.00,VWS V13.01,2015-03-27 00:26:00,
2015-03-26 20:31:00,37.8,37.8,30.08,WNW,301,2.7,3.1,100,0.00,,---,0.00,VWS V13.01,2015-03-27 00:31:00,
2015-03-26 20:36:00,37.8,37.7,30.08,NW,310,2.7,4.0,100,0.00,,---,0.00,VWS V13.01,2015-03-27 00:36:00,
2015-03-26 20:41:00,37.6,37.5,30.08,NW,309,0.0,3.6,100,0.00,,---,0.00,VWS V13.01,2015-03-27 00:41:00,
2015-03-26 20:46:00,37.6,37.5,30.08,NW,309,2.2,3.1,100,0.00,,---,0.00,VWS V13.01,2015-03-27 00:46:00,
2015-03-26 20:51:00,37.6,37.5,30.08,NW,309,0.0,0.0,100,0.00,,---,0.00,VWS V13.01,2015-03-27 00:51:00,
2015-03-26 20:56:00,37.4,37.3,30.08,NW,309,0.0,0.0,100,0.00,,---,0.00,VWS V13.01,2015-03-27 00:56:00,
2015-03-26 21:01:00,37.4,37.3,30.08,NW,309,0.0,0.0,100,0.00,,---,0.00,VWS V13.01,2015-03-27 01:01:00,
2015-03-26 21:06:00,37.2,37.2,30.08,NW,309,0.0,0.0,100,0.00,,---,0.00,VWS V13.01,2015-03-27 01:06:00,
2015-03-26 21:11:00,37.0,37.0,30.08,NW,309,0.0,0.0,100,0.00,,---,0.00,VWS V13.01,2015-03-27 01:11:00,
2015-03-26 21:16:00,37.0,37.0,30.08,NW,309,0.0,0.0,100,0.00,,---,0.00,VWS V13.01,2015-03-27 01:16:00,
2015-03-26 21:21:00,37.0,37.0,30.08,NW,309,0.0,0.0,100,0.00,,---,0.00,VWS V13.01,2015-03-27 01:21:00,
2015-03-26 21:26:00,37.2,37.2,30.08,NW,309,0.0,0.0,100,0.00,,---,0.00,VWS V13.01,2015-03-27 01:26:00,
2015-03-26 21:31:00,37.2,37.2,30.08,NW,309,0.0,0.0,100,0.00,,---,0.00,VWS V13.01,2015-03-27 01:31:00,
2015-03-26 21:36:00,37.2,37.2,30.08,NW,309,0.0,0.0,100,0.00,,---,0.00,VWS V13.01,2015-03-27 01:36:00,
2015-03-26 21:41:00,37.2,37.2,30.08,NW,309,0.0,0.0,100,0.00,,---,0.00,VWS V13.01,2015-03-27 01:41:00,
2015-03-26 21:46:00,37.2,37.2,30.08,NW,306,6.3,6.7,100,0.00,,---,0.00,VWS V13.01,2015-03-27 01:46:00,
2015-03-26 21:51:00,37.4,37.4,30.08,NW,311,3.6,4.9,100,0.00,,---,0.00,VWS V13.01,2015-03-27 01:51:00,
2015-03-26 21:56:00,37.6,37.6,30.08,NW,322,6.7,8.7,100,0.00,,---,0.00,VWS V13.01,2015-03-27 01:56:00,
2015-03-26 22:01:00,37.6,37.6,30.08,NNW,343,5.8,5.8,100,0.00,,---,0.00,VWS V13.01,2015-03-27 02:01:00,
2015-03-26 22:06:00,37.6,37.6,30.08,NW,315,4.9,4.9,100,0.00,,---,0.00,VWS V13.01,2015-03-27 02:06:00,
2015-03-26 22:11:00,37.6,37.6,30.08,NNW,340,9.2,10.1,100,0.00,,---,0.00,VWS V13.01,2015-03-27 02:11:00,
2015-03-26 22:16:00,37.6,37.6,30.08,NW,320,8.1,10.1,100,0.00,,---,0.00,VWS V13.01,2015-03-27 02:16:00,
2015-03-26 22:21:00,37.4,37.4,30.08,North,0,7.6,11.9,100,0.00,,---,0.00,VWS V13.01,2015-03-27 02:21:00,
2015-03-26 22:26:00,37.0,37.0,30.08,WNW,301,6.3,9.6,100,0.00,,---,0.00,VWS V13.01,2015-03-27 02:26:00,
2015-03-26 22:31:00,36.9,36.9,30.11,NNW,340,3.1,6.3,100,0.00,,---,0.00,VWS V13.01,2015-03-27 02:31:00,
2015-03-26 22:36:00,36.3,36.3,30.11,NNW,327,5.4,9.2,100,0.00,,---,0.00,VWS V13.01,2015-03-27 02:36:00,
2015-03-26 22:41:00,36.1,36.1,30.11,NW,312,2.7,7.6,100,0.00,,---,0.00,VWS V13.01,2015-03-27 02:41:00,
2015-03-26 22:46:00,35.8,35.8,30.11,North,1,7.6,10.5,100,0.00,,---,0.00,VWS V13.01,2015-03-27 02:46:00,
2015-03-26 22:51:00,35.6,35.6,30.11,NW,315,5.8,5.8,100,0.00,,---,0.00,VWS V13.01,2015-03-27 02:51:00,
2015-03-26 22:56:00,35.4,35.4,30.11,NNW,338,2.7,4.0,100,0.00,,---,0.00,VWS V13.01,2015-03-27 02:56:00,
2015-03-26 23:01:00,35.1,35.1,30.11,NNW,335,0.0,2.7,100,0.00,,---,0.00,VWS V13.01,2015-03-27 03:01:00,
2015-03-26 23:06:00,34.9,34.8,30.11,NW,326,4.0,4.0,100,0.00,,---,0.00,VWS V13.01,2015-03-27 03:06:00,
2015-03-26 23:11:00,34.5,34.4,30.11,NW,321,3.6,5.8,100,0.00,,---,0.00,VWS V13.01,2015-03-27 03:11:00,
2015-03-26 23:16:00,34.3,34.2,30.11,NNW,335,3.1,4.9,100,0.00,,---,0.00,VWS V13.01,2015-03-27 03:16:00,
2015-03-26 23:21:00,34.0,33.9,30.11,NW,325,3.1,3.1,100,0.00,,---,0.00,VWS V13.01,2015-03-27 03:21:00,
2015-03-26 23:26:00,33.8,33.7,30.11,NNW,334,3.1,3.1,100,0.00,,---,0.00,VWS V13.01,2015-03-27 03:26:00,
2015-03-26 23:31:00,33.6,33.5,30.11,NNW,338,0.0,2.2,100,0.00,,---,0.00,VWS V13.01,2015-03-27 03:31:00,
2015-03-26 23:36:00,33.4,33.3,30.11,NW,321,2.2,5.4,100,0.00,,---,0.00,VWS V13.01,2015-03-27 03:36:00,
2015-03-26 23:41:00,33.3,33.2,30.11,North,0,4.0,4.0,100,0.00,,---,0.00,VWS V13.01,2015-03-27 03:41:00,